Flag for U.S.A. Weather past 2 weeks in Charleston, South Carolina, U.S.A.

Now
87 °F

Broken clouds.


Feels Like: 94 °F
Forecast: 76 / 88 °F
Wind: 7 mph from West

Location: Charleston Air Force Base Reporting Station

Current Time: Jul 2, 2015 at 12:38:07 PM

Latest Report: Jul 2, 2015 at 11:56 AM


Visibility: 10 mi

Pressure: 30.01 "Hg

Humidity: 61%

Dew point: 72 °F

Location of CharlestonLocation

Historic Weather in Charleston — Graph

°F

Charleston temperature yesterday

Maximum temperature yesterday: 88 °F (at 4:56 PM)
Minimum temperature yesterday: 71 °F (at 1:56 AM)
Average temperature yesterday: 79 °F

Past Weeks' High & Low Weather Summary

 TemperatureHumidityPressure
High98 °F (Jun 17, 2:56 PM)94% (Jun 19, 6:56 AM)30.13 "Hg (Jun 19, 6:56 AM)
Low71 °F (Jun 25, 12:56 AM)34% (Jun 29, 2:56 PM)29.84 "Hg (Jun 27, 6:56 PM)
Average83 °F72%30.01 "Hg
* Reported Jun 17 10:56 AM — Jul 2 10:56 AM, Charleston, Weather by CustomWeather, © 2015

Note: Actual official high and low records may vary slightly from our data, if they occured in-between our weather recording intervals... More about our weather records

Advertising

Charleston weather history for previous 24 hours

 ConditionsComfort  
Time TempWeatherWind HumidityBarometerVisibility
10:56 AM
Thu, Jul 2
84 °FBroken clouds.9 mph63%30.02 "Hg10 mi
9:56 AM83 °FScattered clouds.12 mph65%30.02 "Hg10 mi
8:56 AM78 °FBroken clouds.10 mph74%30.03 "Hg10 mi
7:56 AM74 °FPartly sunny.8 mph82%30.02 "Hg10 mi
6:56 AM74 °FPassing clouds.8 mph82%30.00 "Hg10 mi
5:56 AM73 °FPassing clouds.6 mph81%29.98 "Hg10 mi
4:56 AM74 °FPassing clouds.9 mph85%29.98 "Hg10 mi
3:56 AM76 °FPassing clouds.8 mph82%29.97 "Hg10 mi
2:56 AM77 °FPassing clouds.7 mph82%29.98 "Hg10 mi
1:56 AM78 °FPassing clouds.10 mph84%30.00 "Hg10 mi
12:56 AM78 °FPassing clouds.7 mph90%30.00 "Hg10 mi
11:56 PM
Wed, Jul 1
78 °FPassing clouds.6 mph87%30.02 "Hg10 mi
10:56 PM79 °FPassing clouds.5 mph79%30.03 "Hg10 mi
9:56 PM80 °FOvercast.7 mph76%30.01 "Hg10 mi
8:56 PM81 °FOvercast.6 mph72%29.99 "Hg10 mi
7:56 PM83 °FPartly sunny.5 mph68%29.99 "Hg10 mi
6:56 PM85 °FPartly sunny.8 mph61%29.98 "Hg10 mi
5:56 PM86 °FPartly sunny.9 mph59%29.97 "Hg10 mi
4:56 PM88 °FBroken clouds.9 mph55%29.97 "Hg10 mi
3:56 PM87 °FBroken clouds.12 mph57%29.99 "Hg10 mi
2:56 PM86 °FBroken clouds.6 mph59%29.99 "Hg10 mi
1:56 PM85 °FBroken clouds.10 mph61%30.01 "Hg10 mi
12:56 PM84 °FPartly sunny.12 mph63%30.02 "Hg10 mi
Weather by CustomWeather, © 2015

See weather overviewHow to use our weather pages